<?xml version="1.0"?>
<gpx xmlns="http://www.topografix.com/GPX/1/1" xmlns:xsi="http://www.w3.org/2001/XMLSchema-instance" version="1.1" creator="GPX RubyGem 1.0.0 -- http://dougfales.github.io/gpx/" xsi:schemaLocation="http://www.topografix.com/GPX/1/1 http://www.topografix.com/GPX/1/1/gpx.xsd">
  <metadata>
    <name/>
    <time>2026-05-07T23:55:16+00:00</time>
    <bound minlat="90.0" minlon="180.0" maxlat="-90.0" maxlon="-180.0"/>
  </metadata>
  <trk>
    <name/>
    <trkseg>
      <trkpt lat="46.372234" lon="7.031172">
        <time>1970-01-01T00:00:00+00:00</time>
        <ele>1661.0</ele>
      </trkpt>
      <trkpt lat="46.372291" lon="7.03098">
        <time>1970-01-01T00:00:00+00:00</time>
        <ele>1665.0</ele>
      </trkpt>
      <trkpt lat="46.372358" lon="7.030685">
        <time>1970-01-01T00:00:00+00:00</time>
        <ele>1667.0</ele>
      </trkpt>
      <trkpt lat="46.372435" lon="7.030561">
        <time>1970-01-01T00:00:00+00:00</time>
        <ele>1669.0</ele>
      </trkpt>
      <trkpt lat="46.3725" lon="7.030466">
        <time>1970-01-01T00:00:00+00:00</time>
        <ele>1670.0</ele>
      </trkpt>
      <trkpt lat="46.372577" lon="7.030475">
        <time>1970-01-01T00:00:00+00:00</time>
        <ele>1671.0</ele>
      </trkpt>
      <trkpt lat="46.372653" lon="7.030587">
        <time>1970-01-01T00:00:00+00:00</time>
        <ele>1672.0</ele>
      </trkpt>
      <trkpt lat="46.372726" lon="7.030079">
        <time>1970-01-01T00:00:00+00:00</time>
        <ele>1676.0</ele>
      </trkpt>
      <trkpt lat="46.372896" lon="7.029552">
        <time>1970-01-01T00:00:00+00:00</time>
        <ele>1687.0</ele>
      </trkpt>
      <trkpt lat="46.372877" lon="7.02924">
        <time>1970-01-01T00:00:00+00:00</time>
        <ele>1688.0</ele>
      </trkpt>
      <trkpt lat="46.372882" lon="7.029103">
        <time>1970-01-01T00:00:00+00:00</time>
        <ele>1690.0</ele>
      </trkpt>
      <trkpt lat="46.372934" lon="7.028916">
        <time>1970-01-01T00:00:00+00:00</time>
        <ele>1693.0</ele>
      </trkpt>
      <trkpt lat="46.372931" lon="7.028835">
        <time>1970-01-01T00:00:00+00:00</time>
        <ele>1694.0</ele>
      </trkpt>
      <trkpt lat="46.372912" lon="7.028753">
        <time>1970-01-01T00:00:00+00:00</time>
        <ele>1695.0</ele>
      </trkpt>
      <trkpt lat="46.372671" lon="7.028251">
        <time>1970-01-01T00:00:00+00:00</time>
        <ele>1693.0</ele>
      </trkpt>
      <trkpt lat="46.372478" lon="7.027958">
        <time>1970-01-01T00:00:00+00:00</time>
        <ele>1696.0</ele>
      </trkpt>
      <trkpt lat="46.372456" lon="7.027808">
        <time>1970-01-01T00:00:00+00:00</time>
        <ele>1698.0</ele>
      </trkpt>
      <trkpt lat="46.37242" lon="7.027712">
        <time>1970-01-01T00:00:00+00:00</time>
        <ele>1698.0</ele>
      </trkpt>
      <trkpt lat="46.372326" lon="7.027594">
        <time>1970-01-01T00:00:00+00:00</time>
        <ele>1696.0</ele>
      </trkpt>
      <trkpt lat="46.372319" lon="7.027438">
        <time>1970-01-01T00:00:00+00:00</time>
        <ele>1697.0</ele>
      </trkpt>
      <trkpt lat="46.372297" lon="7.02735">
        <time>1970-01-01T00:00:00+00:00</time>
        <ele>1696.0</ele>
      </trkpt>
      <trkpt lat="46.372252" lon="7.027291">
        <time>1970-01-01T00:00:00+00:00</time>
        <ele>1694.0</ele>
      </trkpt>
      <trkpt lat="46.372063" lon="7.02676">
        <time>1970-01-01T00:00:00+00:00</time>
        <ele>1687.0</ele>
      </trkpt>
      <trkpt lat="46.371923" lon="7.026607">
        <time>1970-01-01T00:00:00+00:00</time>
        <ele>1684.0</ele>
      </trkpt>
      <trkpt lat="46.371847" lon="7.026574">
        <time>1970-01-01T00:00:00+00:00</time>
        <ele>1683.0</ele>
      </trkpt>
      <trkpt lat="46.371764" lon="7.025896">
        <time>1970-01-01T00:00:00+00:00</time>
        <ele>1684.0</ele>
      </trkpt>
      <trkpt lat="46.372828" lon="7.02371">
        <time>1970-01-01T00:00:00+00:00</time>
        <ele>1674.0</ele>
      </trkpt>
      <trkpt lat="46.372263" lon="7.023997">
        <time>1970-01-01T00:00:00+00:00</time>
        <ele>1661.0</ele>
      </trkpt>
      <trkpt lat="46.373037" lon="7.022216">
        <time>1970-01-01T00:00:00+00:00</time>
        <ele>1687.0</ele>
      </trkpt>
      <trkpt lat="46.372641" lon="7.021679">
        <time>1970-01-01T00:00:00+00:00</time>
        <ele>1725.0</ele>
      </trkpt>
      <trkpt lat="46.371557" lon="7.022117">
        <time>1970-01-01T00:00:00+00:00</time>
        <ele>1718.0</ele>
      </trkpt>
      <trkpt lat="46.369306" lon="7.021712">
        <time>1970-01-01T00:00:00+00:00</time>
        <ele>1734.0</ele>
      </trkpt>
      <trkpt lat="46.368905" lon="7.021108">
        <time>1970-01-01T00:00:00+00:00</time>
        <ele>1753.0</ele>
      </trkpt>
      <trkpt lat="46.367306" lon="7.016179">
        <time>1970-01-01T00:00:00+00:00</time>
        <ele>1827.0</ele>
      </trkpt>
      <trkpt lat="46.36719" lon="7.016036">
        <time>1970-01-01T00:00:00+00:00</time>
        <ele>1825.0</ele>
      </trkpt>
      <trkpt lat="46.367077" lon="7.015846">
        <time>1970-01-01T00:00:00+00:00</time>
        <ele>1825.0</ele>
      </trkpt>
      <trkpt lat="46.36702" lon="7.015629">
        <time>1970-01-01T00:00:00+00:00</time>
        <ele>1826.0</ele>
      </trkpt>
      <trkpt lat="46.366956" lon="7.015467">
        <time>1970-01-01T00:00:00+00:00</time>
        <ele>1826.0</ele>
      </trkpt>
      <trkpt lat="46.366848" lon="7.015324">
        <time>1970-01-01T00:00:00+00:00</time>
        <ele>1826.0</ele>
      </trkpt>
      <trkpt lat="46.366586" lon="7.015018">
        <time>1970-01-01T00:00:00+00:00</time>
        <ele>1834.0</ele>
      </trkpt>
      <trkpt lat="46.366463" lon="7.014906">
        <time>1970-01-01T00:00:00+00:00</time>
        <ele>1838.0</ele>
      </trkpt>
      <trkpt lat="46.3664" lon="7.014903">
        <time>1970-01-01T00:00:00+00:00</time>
        <ele>1839.0</ele>
      </trkpt>
      <trkpt lat="46.366314" lon="7.014844">
        <time>1970-01-01T00:00:00+00:00</time>
        <ele>1841.0</ele>
      </trkpt>
      <trkpt lat="46.366249" lon="7.014783">
        <time>1970-01-01T00:00:00+00:00</time>
        <ele>1843.0</ele>
      </trkpt>
      <trkpt lat="46.366199" lon="7.01464">
        <time>1970-01-01T00:00:00+00:00</time>
        <ele>1845.0</ele>
      </trkpt>
      <trkpt lat="46.366199" lon="7.01464">
        <time>1970-01-01T00:00:00+00:00</time>
        <ele>1845.0</ele>
      </trkpt>
      <trkpt lat="46.366249" lon="7.014783">
        <time>1970-01-01T00:00:00+00:00</time>
        <ele>1843.0</ele>
      </trkpt>
      <trkpt lat="46.366314" lon="7.014844">
        <time>1970-01-01T00:00:00+00:00</time>
        <ele>1841.0</ele>
      </trkpt>
      <trkpt lat="46.3664" lon="7.014903">
        <time>1970-01-01T00:00:00+00:00</time>
        <ele>1839.0</ele>
      </trkpt>
      <trkpt lat="46.366463" lon="7.014906">
        <time>1970-01-01T00:00:00+00:00</time>
        <ele>1838.0</ele>
      </trkpt>
      <trkpt lat="46.366586" lon="7.015018">
        <time>1970-01-01T00:00:00+00:00</time>
        <ele>1834.0</ele>
      </trkpt>
      <trkpt lat="46.366848" lon="7.015324">
        <time>1970-01-01T00:00:00+00:00</time>
        <ele>1826.0</ele>
      </trkpt>
      <trkpt lat="46.366956" lon="7.015467">
        <time>1970-01-01T00:00:00+00:00</time>
        <ele>1826.0</ele>
      </trkpt>
      <trkpt lat="46.36702" lon="7.015629">
        <time>1970-01-01T00:00:00+00:00</time>
        <ele>1826.0</ele>
      </trkpt>
      <trkpt lat="46.367077" lon="7.015846">
        <time>1970-01-01T00:00:00+00:00</time>
        <ele>1825.0</ele>
      </trkpt>
      <trkpt lat="46.36719" lon="7.016036">
        <time>1970-01-01T00:00:00+00:00</time>
        <ele>1825.0</ele>
      </trkpt>
      <trkpt lat="46.367306" lon="7.016179">
        <time>1970-01-01T00:00:00+00:00</time>
        <ele>1827.0</ele>
      </trkpt>
      <trkpt lat="46.368905" lon="7.021108">
        <time>1970-01-01T00:00:00+00:00</time>
        <ele>1753.0</ele>
      </trkpt>
      <trkpt lat="46.369306" lon="7.021712">
        <time>1970-01-01T00:00:00+00:00</time>
        <ele>1734.0</ele>
      </trkpt>
      <trkpt lat="46.371557" lon="7.022117">
        <time>1970-01-01T00:00:00+00:00</time>
        <ele>1718.0</ele>
      </trkpt>
      <trkpt lat="46.372641" lon="7.021679">
        <time>1970-01-01T00:00:00+00:00</time>
        <ele>1725.0</ele>
      </trkpt>
      <trkpt lat="46.373037" lon="7.022216">
        <time>1970-01-01T00:00:00+00:00</time>
        <ele>1687.0</ele>
      </trkpt>
      <trkpt lat="46.372263" lon="7.023997">
        <time>1970-01-01T00:00:00+00:00</time>
        <ele>1661.0</ele>
      </trkpt>
      <trkpt lat="46.372828" lon="7.02371">
        <time>1970-01-01T00:00:00+00:00</time>
        <ele>1674.0</ele>
      </trkpt>
      <trkpt lat="46.371764" lon="7.025896">
        <time>1970-01-01T00:00:00+00:00</time>
        <ele>1684.0</ele>
      </trkpt>
      <trkpt lat="46.371847" lon="7.026574">
        <time>1970-01-01T00:00:00+00:00</time>
        <ele>1683.0</ele>
      </trkpt>
      <trkpt lat="46.371923" lon="7.026607">
        <time>1970-01-01T00:00:00+00:00</time>
        <ele>1684.0</ele>
      </trkpt>
      <trkpt lat="46.372063" lon="7.02676">
        <time>1970-01-01T00:00:00+00:00</time>
        <ele>1687.0</ele>
      </trkpt>
      <trkpt lat="46.372252" lon="7.027291">
        <time>1970-01-01T00:00:00+00:00</time>
        <ele>1694.0</ele>
      </trkpt>
      <trkpt lat="46.372297" lon="7.02735">
        <time>1970-01-01T00:00:00+00:00</time>
        <ele>1696.0</ele>
      </trkpt>
      <trkpt lat="46.372319" lon="7.027438">
        <time>1970-01-01T00:00:00+00:00</time>
        <ele>1697.0</ele>
      </trkpt>
      <trkpt lat="46.372326" lon="7.027594">
        <time>1970-01-01T00:00:00+00:00</time>
        <ele>1696.0</ele>
      </trkpt>
      <trkpt lat="46.37242" lon="7.027712">
        <time>1970-01-01T00:00:00+00:00</time>
        <ele>1698.0</ele>
      </trkpt>
      <trkpt lat="46.372456" lon="7.027808">
        <time>1970-01-01T00:00:00+00:00</time>
        <ele>1698.0</ele>
      </trkpt>
      <trkpt lat="46.372478" lon="7.027958">
        <time>1970-01-01T00:00:00+00:00</time>
        <ele>1696.0</ele>
      </trkpt>
      <trkpt lat="46.372671" lon="7.028251">
        <time>1970-01-01T00:00:00+00:00</time>
        <ele>1693.0</ele>
      </trkpt>
      <trkpt lat="46.372912" lon="7.028753">
        <time>1970-01-01T00:00:00+00:00</time>
        <ele>1695.0</ele>
      </trkpt>
      <trkpt lat="46.372931" lon="7.028835">
        <time>1970-01-01T00:00:00+00:00</time>
        <ele>1694.0</ele>
      </trkpt>
      <trkpt lat="46.372934" lon="7.028916">
        <time>1970-01-01T00:00:00+00:00</time>
        <ele>1693.0</ele>
      </trkpt>
      <trkpt lat="46.372882" lon="7.029103">
        <time>1970-01-01T00:00:00+00:00</time>
        <ele>1690.0</ele>
      </trkpt>
      <trkpt lat="46.372877" lon="7.02924">
        <time>1970-01-01T00:00:00+00:00</time>
        <ele>1688.0</ele>
      </trkpt>
      <trkpt lat="46.372896" lon="7.029552">
        <time>1970-01-01T00:00:00+00:00</time>
        <ele>1687.0</ele>
      </trkpt>
      <trkpt lat="46.372726" lon="7.030079">
        <time>1970-01-01T00:00:00+00:00</time>
        <ele>1676.0</ele>
      </trkpt>
      <trkpt lat="46.372653" lon="7.030587">
        <time>1970-01-01T00:00:00+00:00</time>
        <ele>1672.0</ele>
      </trkpt>
      <trkpt lat="46.372577" lon="7.030475">
        <time>1970-01-01T00:00:00+00:00</time>
        <ele>1671.0</ele>
      </trkpt>
      <trkpt lat="46.3725" lon="7.030466">
        <time>1970-01-01T00:00:00+00:00</time>
        <ele>1670.0</ele>
      </trkpt>
      <trkpt lat="46.372435" lon="7.030561">
        <time>1970-01-01T00:00:00+00:00</time>
        <ele>1669.0</ele>
      </trkpt>
      <trkpt lat="46.372358" lon="7.030685">
        <time>1970-01-01T00:00:00+00:00</time>
        <ele>1667.0</ele>
      </trkpt>
      <trkpt lat="46.372291" lon="7.03098">
        <time>1970-01-01T00:00:00+00:00</time>
        <ele>1665.0</ele>
      </trkpt>
      <trkpt lat="46.372234" lon="7.031172">
        <time>1970-01-01T00:00:00+00:00</time>
        <ele>1661.0</ele>
      </trkpt>
    </trkseg>
  </trk>
</gpx>
